Wind_Speed
113 113 112 112 111 110 109 107 106 105 103 103 102 102 102 102 102 102 102 102 102 103 104 104 103 103 102 102 102 102 104 106 108 109 110 111 113 115 117 117 118 118
112 111 110 109 108 106 105 104 103 102 102 101 101 101 101 101 101 101 102 102 102 102 103 104 104 104 104 103 103 103 103 104 107 109 110 111 112 114 116 117 117 118
109 108 107 106 105 104 103 102 102 102 101 101 101 101 101 101 101 101 101 101 102 102 103 104 104 104 104 104 104 103 103 104 105 107 108 109 110 112 114 115 115 115
106 105 104 104 103 103 103 102 102 102 101 101 101 100 100 100 100 100 101 101 102 102 103 103 104 104 105 104 104 104 103 103 104 105 106 107 107 108 110 112 112 111
105 104 103 103 103 103 102 102 102 101 101 101 100 100 100 100 100 100 101 101 101 102 102 103 103 103 104 104 104 103 103 102 103 104 104 104 104 104 105 107 107 107
104 103 102 102 102 102 102 102 101 101 101 101 101 101 101 101 101 101 101 101 101 102 102 102 102 102 103 103 103 103 102 101 101 101 100 99 99 99 100 102 102 102
103 102 102 101 101 101 102 102 102 101 102 102 102 102 101 101 101 101 101 101 101 101 100 100 100 100 101 101 101 101 101 100 98 96 96 95 94 94 95 96 97 97
102 102 101 101 101 101 102 102 102 102 102 102 102 102 102 101 101 101 101 100 100 99 98 98 98 98 99 99 98 97 97 96 95 93 92 91 91 91 91 92 92 93
102 102 102 102 102 102 102 102 102 102 102 102 102 102 101 101 101 100 100 99 98 97 96 96 96 97 97 97 95 94 93 92 91 91 90 89 88 88 88 88 88 89
102 102 102 102 102 102 102 102 102 102 102 102 101 101 100 100 99 98 98 97 96 95 95 95 95 95 95 94 93 92 90 89 89 89 88 87 86 85 85 85 85 85
102 102 102 102 102 102 102 103 103 102 102 101 100 99 99 98 98 97 96 95 94 94 94 94 93 93 93 92 91 90 89 88 88 87 85 84 83 83 82 83 83 83
102 102 102 102 102 102 102 102 102 101 101 100 99 98 97 97 96 95 94 94 93 92 92 93 92 92 91 90 89 89 88 86 85 84 83 82 81 80 80 80 80 81
101 101 101 101 101 101 101 100 100 99 99 98 97 95 95 94 93 93 92 92 91 91 91 92 91 91 89 88 87 87 86 84 83 82 81 80 79 79 78 78 78 78
100 100 100 100 100 99 99 98 98 97 96 95 94 93 92 91 91 90 89 89 90 90 90 90 90 89 88 87 85 84 83 82 80 80 79 78 78 77 76 76 76 77
99 99 99 98 97 97 96 96 95 94 93 92 91 90 89 89 88 87 87 87 88 88 89 89 88 88 86 84 83 82 81 80 79 78 77 77 76 75 74 74 74 75
95 95 95 95 94 94 93 93 92 91 90 89 88 88 87 87 86 86 86 86 86 86 87 87 87 85 84 82 81 80 79 78 77 77 76 75 74 73 73 72 72 73
92 92 92 92 91 91 90 90 89 89 88 87 87 86 86 86 86 85 85 85 85 85 85 84 84 83 82 80 79 78 76 75 75 75 74 73 72 71 71 71 70 71
89 89 89 89 89 88 88 88 88 87 87 86 86 85 85 85 84 84 84 84 84 83 83 82 82 81 80 79 78 76 74 73 73 73 73 71 70 70 69 69 69 69
87 87 87 87 87 87 87 87 87 86 86 85 85 85 84 83 83 82 82 82 82 82 81 81 80 78 78 77 76 74 73 71 71 71 70 69 69 68 68 67 67 68
86 86 86 86 86 86 86 86 86 86 86 85 84 84 83 82 81 81 81 81 81 80 80 79 78 76 76 76 74 72 71 70 69 69 68 67 67 66 66 66 65 66
86 86 86 86 86 86 86 86 86 85 85 84 83 83 82 81 80 79 80 79 79 78 78 78 76 74 73 73 72 71 70 68 67 66 65 64 64 64 65 64 64 64
87 86 86 86 86 86 86 86 85 85 84 83 82 81 80 80 79 78 78 78 78 77 77 76 75 72 71 71 70 69 68 66 65 64 63 62 62 62 63 63 62 62
87 86 86 86 86 86 85 85 84 84 83 82 81 80 79 78 78 77 77 77 76 76 76 75 74 71 69 69 68 67 66 64 63 62 62 61 61 61 61 61 61 60
87 86 86 86 85 85 84 84 83 82 81 80 79 78 78 77 76 76 76 76 75 75 74 74 72 70 68 67 66 65 64 62 61 61 60 60 60 60 59 59 59 59
87 86 86 85 84 84 83 82 81 80 79 78 77 76 76 75 74 74 75 75 74 74 73 72 71 68 66 66 65 64 63 61 59 59 58 59 59 59 58 57 57 57
86 85 84 83 82 81 81 80 79 78 77 75 75 74 74 73 73 72 73 73 73 72 72 70 68 67 65 64 64 63 61 59 58 57 57 57 58 58 56 56 55 55
Wind_Direction
289 289 289 289 288 288 287 287 287 286 286 286 285 285 285 285 285 284 284 284 284 283 283 282 281 280 279 278 277 276 275 275 275 274 274 273 272 272 271 271 270 270
290 290 289 289 288 288 288 287 287 287 287 286 286 286 286 286 285 285 285 285 284 284 283 283 282 282 281 280 279 277 276 276 275 274 273 272 272 271 271 271 270 270
290 290 290 289 289 289 288 288 288 288 287 287 287 287 287 287 286 286 286 286 285 285 285 284 284 283 282 281 280 279 278 277 276 275 274 273 272 272 271 271 270 269
291 290 290 290 290 290 289 289 289 288 288 288 288 288 288 287 287 287 287 286 286 286 285 285 285 284 283 282 281 280 279 278 277 276 275 274 274 273 272 271 270 269
291 291 291 290 290 290 290 289 289 289 290 290 289 289 289 289 288 288 288 287 287 287 286 286 285 285 284 283 282 281 280 279 278 278 277 275 274 273 272 271 270 268
291 291 291 291 291 291 291 291 291 291 291 291 291 290 290 290 289 289 288 288 288 287 287 286 286 285 284 283 283 282 281 280 279 278 277 276 274 273 271 270 269 268
292 292 292 292 292 292 292 292 292 292 292 292 291 291 291 290 290 290 289 289 288 288 287 287 286 285 284 283 283 283 282 282 280 279 278 277 275 273 272 271 270 268
292 292 292 292 292 292 292 292 292 292 292 291 291 291 291 291 290 290 290 289 289 288 287 287 286 285 284 284 284 284 283 283 282 281 279 278 276 275 273 272 271 269
293 293 293 293 293 292 292 292 292 292 291 291 291 291 291 291 291 290 290 290 289 289 288 287 286 286 285 285 285 285 285 284 283 282 281 279 278 276 275 273 272 270
293 293 293 293 293 293 292 292 292 292 292 292 292 292 292 291 291 291 291 291 290 290 289 288 287 287 287 287 287 287 286 286 284 283 282 281 279 277 276 274 272 271
293 293 293 293 293 293 292 292 292 292 292 293 293 292 292 292 292 292 292 292 291 291 290 289 289 289 289 289 289 288 288 286 285 284 283 281 279 278 276 275 273 272
293 293 293 293 293 293 293 293 293 293 293 293 293 293 293 293 293 293 293 292 292 291 290 290 290 290 290 290 290 289 288 287 286 285 283 282 280 278 277 275 274 273
293 293 293 293 293 293 293 293 293 294 294 294 294 294 294 294 294 294 293 293 292 292 291 291 291 291 291 290 290 289 288 288 287 285 284 282 281 279 278 276 275 274
294 294 294 294 294 294 294 294 294 294 294 294 295 295 295 295 294 294 294 293 293 292 292 292 292 292 291 291 291 290 289 288 287 286 284 283 281 280 279 278 276 275
295 295 294 294 295 295 294 294 295 295 295 296 296 296 295 295 295 295 294 294 293 293 293 292 292 292 292 292 291 291 290 289 287 286 284 283 282 281 279 278 276 275
295 295 295 295 295 295 296 296 296 297 297 297 297 297 296 296 296 296 295 294 294 293 293 293 292 292 292 292 292 291 290 289 288 286 285 283 282 281 279 278 276 275
296 296 296 296 296 297 298 298 298 298 298 298 298 298 298 298 297 297 296 295 294 294 293 293 293 293 293 293 292 291 290 289 288 286 285 284 283 281 280 278 277 275
297 297 298 298 299 299 299 300 300 300 300 300 299 299 299 298 298 297 296 296 295 295 294 294 294 294 294 293 292 291 290 289 288 287 286 284 283 281 280 279 277 276
299 299 300 300 300 301 301 301 301 301 301 301 300 300 299 298 298 297 296 296 296 295 295 295 295 295 294 293 292 292 291 289 288 286 285 284 283 282 281 279 278 276
300 301 301 301 301 301 301 302 302 302 301 301 300 300 299 298 298 298 297 296 296 296 296 295 295 295 295 293 293 292 291 289 288 286 285 284 283 282 281 280 279 277
301 301 301 301 301 301 301 301 301 301 301 301 300 300 299 299 299 298 298 297 297 296 296 296 295 295 295 294 293 292 290 289 288 287 286 285 284 283 282 281 279 278
301 301 301 301 301 301 301 301 301 301 301 301 300 300 300 300 299 299 298 298 297 297 296 296 296 296 295 294 293 292 291 290 289 287 286 285 284 283 282 281 280 279
301 301 301 301 301 300 300 300 301 301 301 301 301 300 300 300 300 300 299 298 298 297 297 297 296 296 295 294 293 292 291 290 289 288 287 286 285 284 283 282 280 279
301 301 301 301 301 300 300 300 300 301 301 301 301 301 301 301 300 300 299 299 298 298 298 297 297 297 296 295 294 292 291 291 290 289 288 287 285 284 283 282 281 279
302 302 301 301 301 300 300 300 300 300 301 301 301 301 301 301 300 300 300 299 299 299 298 298 298 297 297 295 294 293 292 291 290 289 288 287 286 284 283 282 281 280
302 302 301 301 301 300 300 300 300 301 301 301 301 301 301 301 300 300 300 299 299 299 299 298 298 298 297 296 295 293 292 292 291 290 288 287 286 285 284 283 281 280
Height
10233 10228 10223 10218 10213 10208 10204 10200 10196 10192 10189 10185 10181 10177 10173 10170 10166 10162 10158 10154 10150 10146 10141 10139 10138 10138 10136 10135 10134 10132 10128 10121 10115 10112 10110 10109 10105 10101 10098 10098 10097 10096
10216 10211 10206 10200 10196 10192 10187 10183 10179 10175 10172 10169 10165 10162 10158 10154 10150 10146 10142 10138 10134 10130 10125 10121 10118 10117 10115 10114 10112 10112 10110 10105 10099 10094 10091 10090 10087 10083 10079 10078 10078 10077
10199 10195 10189 10183 10179 10175 10170 10167 10163 10159 10156 10153 10149 10146 10142 10139 10135 10130 10126 10122 10118 10113 10108 10104 10100 10097 10095 10093 10091 10090 10089 10085 10081 10076 10072 10070 10068 10065 10060 10057 10058 10058
10182 10179 10174 10168 10163 10159 10154 10151 10147 10144 10140 10137 10133 10130 10126 10123 10119 10115 10111 10106 10102 10098 10093 10087 10083 10079 10075 10072 10071 10069 10068 10065 10061 10057 10053 10051 10049 10046 10041 10036 10037 10039
10166 10163 10159 10153 10148 10143 10139 10135 10132 10129 10125 10121 10117 10113 10110 10107 10103 10099 10095 10090 10085 10081 10077 10072 10067 10062 10057 10053 10050 10048 10048 10045 10041 10037 10034 10033 10030 10027 10023 10017 10016 10018
10151 10147 10144 10139 10133 10128 10124 10120 10116 10113 10109 10105 10101 10097 10093 10090 10086 10082 10078 10074 10069 10064 10060 10055 10050 10046 10040 10035 10032 10029 10027 10026 10023 10019 10015 10013 10010 10008 10004 9999 9997 9998
10136 10132 10128 10124 10119 10114 10109 10105 10101 10097 10093 10089 10085 10081 10077 10073 10069 10065 10061 10057 10052 10048 10043 10039 10034 10029 10023 10019 10016 10013 10008 10005 10003 10001 9997 9994 9991 9988 9985 9981 9980 9980
10122 10118 10113 10109 10105 10100 10095 10091 10087 10083 10079 10074 10070 10065 10061 10057 10053 10048 10044 10039 10035 10031 10027 10022 10017 10012 10006 10002 10000 9997 9993 9987 9984 9981 9978 9975 9972 9969 9967 9964 9963 9961
10108 10104 10099 10095 10090 10086 10081 10076 10072 10068 10064 10060 10056 10051 10046 10042 10037 10032 10027 10023 10018 10013 10009 10005 10000 9994 9990 9986 9983 9980 9976 9971 9966 9962 9959 9957 9954 9952 9950 9948 9946 9944
10094 10090 10085 10081 10076 10071 10067 10062 10057 10053 10049 10045 10041 10036 10031 10026 10021 10016 10011 10006 10001 9997 9992 9987 9982 9978 9973 9969 9966 9962 9959 9954 9949 9946 9943 9940 9938 9935 9933 9931 9929 9928
10081 10076 10072 10067 10062 10057 10052 10047 10043 10038 10034 10030 10026 10021 10016 10010 10005 10000 9995 9990 9985 9980 9975 9970 9966 9962 9957 9953 9949 9945 9942 9938 9933 9929 9927 9924 9922 9919 9917 9914 9913 9912
10068 10063 10058 10054 10049 10044 10039 10034 10029 10024 10020 10015 10011 10006 10001 9995 9990 9985 9979 9974 9969 9964 9959 9954 9950 9947 9943 9939 9935 9929 9925 9922 9918 9914 9911 9908 9906 9904 9902 9900 9898 9897
10056 10051 10046 10041 10036 10031 10027 10022 10017 10011 10006 10001 9997 9992 9987 9981 9976 9971 9965 9959 9954 9948 9943 9938 9934 9931 9928 9924 9920 9915 9910 9907 9903 9899 9895 9892 9890 9888 9887 9886 9884 9883
10043 10037 10032 10027 10022 10018 10013 10008 10003 9998 9993 9988 9984 9979 9974 9968 9962 9957 9952 9945 9939 9934 9929 9924 9920 9916 9913 9910 9905 9901 9896 9892 9889 9885 9881 9878 9876 9874 9873 9872 9870 9869
10030 10024 10018 10012 10008 10004 9999 9993 9988 9984 9979 9975 9970 9965 9959 9954 9949 9944 9938 9932 9926 9921 9915 9910 9906 9902 9899 9896 9891 9886 9882 9878 9874 9870 9867 9864 9862 9861 9860 9858 9856 9854
10018 10011 10005 9999 9994 9990 9985 9980 9975 9970 9965 9960 9955 9950 9945 9940 9934 9929 9924 9918 9913 9908 9902 9897 9892 9888 9886 9882 9877 9873 9870 9865 9860 9856 9853 9851 9850 9848 9846 9845 9843 9842
10005 9999 9992 9986 9981 9977 9971 9966 9961 9956 9951 9946 9941 9936 9930 9925 9920 9914 9909 9903 9899 9894 9889 9884 9879 9875 9872 9868 9863 9860 9858 9853 9847 9842 9840 9839 9837 9835 9833 9832 9831 9829
9992 9985 9979 9973 9968 9963 9958 9952 9947 9942 9937 9933 9927 9922 9917 9912 9906 9901 9895 9889 9885 9880 9876 9871 9866 9862 9858 9854 9849 9846 9844 9841 9835 9830 9828 9826 9824 9822 9820 9819 9818 9816
9977 9971 9966 9960 9954 9949 9944 9939 9934 9929 9924 9919 9914 9909 9904 9899 9894 9888 9883 9877 9872 9867 9863 9858 9854 9851 9846 9840 9837 9833 9831 9828 9823 9819 9817 9814 9811 9809 9808 9806 9805 9803
9964 9958 9953 9947 9942 9936 9931 9926 9921 9916 9911 9906 9901 9896 9891 9886 9881 9876 9870 9865 9860 9856 9851 9846 9843 9840 9834 9828 9825 9822 9818 9815 9811 9808 9806 9803 9800 9797 9795 9794 9793 9791
9951 9946 9941 9936 9930 9925 9919 9914 9909 9904 9899 9894 9889 9884 9879 9874 9869 9863 9857 9852 9847 9843 9839 9834 9831 9829 9824 9817 9813 9810 9806 9803 9800 9797 9794 9792 9789 9786 9784 9783 9781 9780
9940 9935 9929 9924 9918 9913 9908 9903 9898 9892 9887 9882 9877 9871 9866 9861 9857 9851 9845 9840 9835 9831 9827 9822 9819 9817 9812 9806 9802 9799 9794 9791 9788 9785 9783 9780 9778 9776 9773 9771 9770 9768
9928 9923 9918 9912 9906 9901 9896 9891 9886 9881 9875 9871 9865 9859 9854 9849 9844 9839 9833 9828 9824 9819 9815 9810 9807 9805 9801 9795 9791 9787 9783 9780 9777 9774 9772 9769 9767 9765 9763 9760 9759 9758
9916 9911 9906 9900 9895 9889 9884 9879 9874 9869 9864 9859 9854 9849 9843 9838 9833 9827 9821 9816 9813 9808 9803 9799 9795 9793 9789 9784 9780 9776 9772 9770 9767 9763 9761 9759 9756 9754 9753 9750 9748 9747
9904 9899 9894 9888 9883 9878 9873 9868 9863 9858 9853 9848 9843 9838 9833 9827 9823 9817 9811 9805 9801 9797 9792 9788 9784 9781 9778 9773 9769 9765 9762 9759 9757 9753 9751 9749 9746 9744 9743 9741 9738 9737
9892 9887 9882 9877 9872 9867 9862 9857 9852 9847 9843 9838 9833 9828 9823 9817 9812 9808 9801 9795 9790 9786 9782 9778 9774 9770 9766 9762 9758 9754 9752 9750 9747 9743 9741 9739 9736 9734 9733 9731 9729 9727